QPF
0.00 0.00 0.00 0.00 0.00 0.00 0.00 0.00 0.00 0.01 0.01 0.01 0.01 0.02 0.02 0.03 0.02 0.03 0.16 0.36 0.20 0.09
0.00 0.00 0.00 0.00 0.00 0.00 0.00 0.00 0.00 0.00 0.00 0.01 0.02 0.02 0.03 0.02 0.04 0.03 0.06 0.23 0.32 0.10
0.00 0.00 0.00 0.00 0.00 0.00 0.00 0.00 0.00 0.00 0.00 0.00 0.01 0.04 0.02 0.03 0.02 0.06 0.11 0.17 0.30 0.26
0.00 0.00 0.00 0.00 0.00 0.00 0.00 0.00 0.00 0.00 0.00 0.00 0.00 0.01 0.03 0.02 0.02 0.06 0.16 0.28 0.34 0.30
0.00 0.00 0.00 0.00 0.00 0.00 0.00 0.00 0.00 0.00 0.00 0.00 0.00 0.01 0.01 0.00 0.01 0.02 0.12 0.20 0.29 0.32
0.00 0.00 0.00 0.00 0.00 0.00 0.00 0.02 0.03 0.04 0.02 0.01 0.00 0.01 0.01 0.02 0.03 0.06 0.15 0.16 0.26 0.36
0.00 0.00 0.00 0.00 0.00 0.00 0.01 0.08 0.14 0.10 0.07 0.07 0.04 0.01 0.01 0.09 0.08 0.12 0.20 0.24 0.19 0.16
0.00 0.00 0.00 0.00 0.00 0.00 0.01 0.00 0.01 0.03 0.02 0.01 0.01 0.01 0.02 0.06 0.18 0.12 0.09 0.10 0.07 0.06
0.00 0.00 0.00 0.00 0.00 0.00 0.00 0.00 0.00 0.01 0.00 0.02 0.03 0.02 0.03 0.04 0.10 0.07 0.04 0.05 0.05 0.06
0.00 0.00 0.00 0.00 0.00 0.00 0.00 0.01 0.01 0.02 0.01 0.01 0.01 0.01 0.01 0.02 0.03 0.02 0.01 0.01 0.01 0.02
0.00 0.00 0.00 0.00 0.00 0.00 0.00 0.00 0.00 0.01 0.00 0.00 0.00 0.00 0.01 0.00 0.00 0.00 0.01 0.01 0.00 0.00
0.00 0.00 0.00 0.00 0.00 0.00 0.00 0.00 0.00 0.00 0.00 0.00 0.00 0.00 0.00 0.00 0.00 0.00 0.00 0.00 0.00 0.00
0.00 0.00 0.00 0.00 0.00 0.00 0.00 0.00 0.00 0.00 0.00 0.00 0.00 0.00 0.00 0.00 0.00 0.00 0.00 0.00 0.00 0.00
0.00 0.00 0.00 0.00 0.00 0.00 0.00 0.00 0.00 0.00 0.00 0.00 0.00 0.00 0.00 0.00 0.00 0.00 0.00 0.00 0.00 0.00
MSLP
1012.47 1012.68 1012.68 1012.70 1012.81 1012.92 1013.34 1013.63 1013.78 1013.91 1014.03 1014.08 1014.16 1014.49 1015.00 1015.81 1016.33 1016.86 1017.48 1018.04 1018.44 1018.84
1012.94 1012.89 1012.84 1012.93 1012.88 1012.91 1013.09 1013.29 1013.43 1013.71 1013.99 1014.26 1014.31 1014.46 1014.80 1015.46 1016.07 1016.68 1017.18 1017.72 1018.21 1019.04
1013.15 1012.98 1013.08 1013.17 1013.32 1013.37 1013.40 1013.54 1013.63 1013.46 1013.74 1014.02 1014.22 1014.49 1014.85 1015.25 1015.68 1016.22 1016.74 1017.29 1017.88 1018.77
1013.36 1013.48 1013.55 1013.61 1013.73 1013.61 1013.50 1013.55 1013.63 1013.50 1013.62 1013.89 1013.98 1014.25 1014.63 1015.00 1015.48 1015.94 1016.48 1017.04 1017.60 1018.38
1013.72 1013.76 1013.80 1013.90 1013.91 1013.71 1013.64 1013.73 1013.78 1013.74 1013.71 1013.89 1013.90 1014.00 1014.47 1014.90 1015.45 1016.05 1016.55 1017.37 1017.99 1018.39
1013.80 1014.00 1014.03 1014.12 1014.19 1014.20 1014.03 1013.89 1013.83 1013.69 1013.68 1013.77 1014.03 1014.30 1014.63 1015.10 1015.73 1016.37 1016.92 1017.48 1018.01 1018.51
1014.01 1014.16 1014.18 1014.43 1014.60 1014.48 1014.17 1014.01 1013.89 1013.90 1013.83 1014.07 1014.40 1014.73 1015.21 1015.64 1016.12 1016.79 1017.40 1018.01 1018.46 1018.91
1014.27 1014.36 1014.58 1014.79 1014.91 1014.84 1014.55 1014.53 1014.53 1014.43 1014.52 1014.77 1015.03 1015.45 1015.88 1016.33 1016.92 1017.49 1018.14 1018.65 1019.06 1019.47
1014.44 1014.49 1014.75 1015.11 1015.24 1015.18 1015.03 1015.08 1015.22 1015.22 1015.29 1015.51 1015.75 1016.03 1016.50 1016.89 1017.64 1018.18 1018.69 1019.23 1019.72 1020.14
1014.52 1014.66 1015.05 1015.45 1015.57 1015.75 1015.70 1015.64 1015.83 1015.96 1016.04 1016.25 1016.69 1016.97 1017.41 1017.88 1018.44 1018.99 1019.58 1020.12 1020.61 1021.08
1014.68 1015.12 1015.46 1015.74 1016.15 1016.42 1016.40 1016.41 1016.60 1016.75 1016.95 1017.17 1017.66 1017.89 1018.25 1018.71 1019.26 1019.91 1020.52 1020.95 1021.33 1021.62
1014.91 1015.40 1015.75 1016.09 1016.60 1016.89 1017.01 1017.16 1017.31 1017.54 1017.83 1018.15 1018.61 1018.83 1019.10 1019.42 1020.06 1020.64 1021.16 1021.50 1021.67 1021.86
1015.03 1015.58 1016.06 1016.52 1017.04 1017.40 1017.65 1017.76 1017.86 1017.99 1018.39 1018.97 1019.34 1019.73 1019.85 1019.92 1020.31 1020.79 1021.40 1021.96 1022.42 1022.73
1015.32 1015.80 1016.23 1016.79 1017.32 1017.72 1017.98 1018.16 1018.34 1018.63 1019.14 1019.57 1020.04 1020.64 1020.66 1020.59 1020.75 1021.16 1021.60 1022.09 1022.61 1023.26
Thickness
5628 5624 5622 5620 5617 5614 5610 5608 5607 5605 5604 5602 5601 5600 5599 5595 5593 5592 5588 5585 5585 5583
5619 5617 5615 5613 5612 5610 5608 5606 5604 5602 5600 5597 5598 5599 5598 5596 5592 5589 5587 5585 5583 5580
5613 5611 5608 5606 5603 5601 5599 5597 5597 5598 5595 5595 5594 5595 5595 5594 5593 5590 5588 5586 5583 5578
5608 5604 5601 5599 5596 5595 5593 5590 5588 5589 5588 5590 5593 5594 5593 5593 5591 5589 5587 5584 5582 5578
5602 5599 5595 5592 5590 5590 5588 5584 5578 5578 5580 5584 5591 5595 5596 5594 5590 5585 5584 5580 5577 5575
5601 5595 5591 5588 5585 5583 5581 5580 5576 5574 5579 5586 5589 5591 5593 5591 5586 5580 5578 5576 5574 5571
5598 5593 5589 5584 5580 5580 5581 5580 5580 5581 5583 5584 5586 5586 5584 5583 5580 5574 5572 5569 5568 5565
5595 5592 5587 5582 5578 5577 5578 5579 5579 5580 5580 5581 5581 5579 5577 5573 5570 5566 5564 5561 5560 5558
5592 5590 5586 5580 5576 5575 5576 5576 5576 5576 5577 5575 5575 5575 5571 5568 5563 5561 5559 5556 5553 5551
5590 5589 5584 5579 5576 5572 5572 5573 5572 5571 5572 5571 5569 5567 5565 5562 5558 5556 5552 5548 5545 5541
5587 5584 5581 5577 5573 5570 5568 5568 5567 5566 5565 5565 5562 5561 5559 5555 5551 5547 5542 5539 5535 5532
5583 5580 5578 5575 5570 5567 5567 5565 5563 5562 5560 5558 5555 5553 5552 5550 5545 5540 5535 5532 5529 5526
5581 5577 5574 5571 5567 5563 5562 5562 5562 5561 5558 5553 5550 5547 5546 5545 5542 5537 5532 5525 5519 5514
5576 5574 5572 5568 5564 5560 5559 5558 5557 5556 5552 5548 5544 5538 5538 5538 5536 5531 5526 5520 5514 5506